{"data":{"norad_id":55673,"epoch":"2026-05-24T23:24:24.242112Z","epoch_age_seconds":76622,"freshness":"FRESH","line1":"1 55673U 23021AX  26144.97528058  .00000002  00000+0  79712-5 0  9997","line2":"2 55673  69.9988 332.0204 0002819 265.1641  94.9196 14.98331144180719","mean_motion":14.98331144,"eccentricity":0.0002819,"inclination_deg":69.9988,"raan_deg":332.0204,"arg_perigee_deg":265.1641,"mean_anomaly_deg":94.9196,"bstar":7.9712e-6,"rev_number":18071,"period_min":96.106925746449,"perigee_km":570.09309484236,"apogee_km":574.01161159971,"semimajor_km":6950.189353221,"source":"CELESTRAK","updated_at":"2026-05-25T13:38:17.876549Z"}}